,,,PA_Meas_PMT16A,,PR_Meas_QMR101_102,,RH_Meas_QMH101,,SR_Meas_QMS101,,TA_Meas_QMH101,,GenWind,,GenWind,
date,time,status,PA,status,PR,status,RH,status,SR,status,TA,status,DirAvg,status,SpdAvg,
2009-05-22, 00:00:05,VALID,1010.06,VALID,0,VALID,88.2833,VALID,0,VALID,24.2573,VALID,66,VALID,0.54375,
2009-05-22, 00:01:05,VALID,1010.08,VALID,0,VALID,88.3367,VALID,0.105969,VALID,24.2378,VALID,46,VALID,0.205469,
2009-05-22, 00:02:05,VALID,1010.05,VALID,0,VALID,88.3977,VALID,0.105969,VALID,24.2378,VALID,43,VALID,0,
2009-05-22, 00:03:05,VALID,1010.07,VALID,0,VALID,88.4435,VALID,0,VALID,24.2591,VALID,43,VALID,0,
2009-05-22, 00:04:05,VALID,1010.08,VALID,0,VALID,88.4892,VALID,0,VALID,24.2183,VALID,44,VALID,0.35625,
2009-05-22, 00:05:05,VALID,1010.05,VALID,0,VALID,88.474,VALID,0,VALID,24.1988,VALID,44,VALID,0.344531,
2009-05-22, 00:06:05,VALID,1010.05,VALID,0,VALID,88.5121,VALID,0.105969,VALID,24.1793,VALID,46,VALID,0.0796875,
2009-05-22, 00:07:05,VALID,1010.04,VALID,0,VALID,88.5274,VALID,0.105969,VALID,24.1599,VALID,46,VALID,0,
2009-05-22, 00:08:05,VALID,1010.02,VALID,0,VALID,88.5655,VALID,0,VALID,24.1599,VALID,46,VALID,0,
2009-05-22, 00:09:05,VALID,1010.01,VALID,0,VALID,88.6113,VALID,0,VALID,24.1812,VALID,46,VALID,0,
2009-05-22, 00:10:05,VALID,1010.02,VALID,0,VALID,88.6418,VALID,0,VALID,24.1404,VALID,46,VALID,0,
2009-05-22, 00:11:05,VALID,1009.97,VALID,0,VALID,88.6799,VALID,0.105969,VALID,24.1404,VALID,52,VALID,0,
2009-05-22, 00:12:05,VALID,1009.98,VALID,0,VALID,88.7028,VALID,0,VALID,24.1209,VALID,54,VALID,0,
2009-05-22, 00:13:05,VALID,1009.97,VALID,0,VALID,88.7485,VALID,0.105969,VALID,24.1209,VALID,54,VALID,0,
2009-05-22, 00:14:05,VALID,1009.94,VALID,0,VALID,88.7409,VALID,0,VALID,24.1014,VALID,54,VALID,0,
2009-05-22, 00:15:05,VALID,1009.94,VALID,0,VALID,88.7866,VALID,0,VALID,24.1014,VALID,54,VALID,0,
2009-05-22, 00:16:05,VALID,1009.93,VALID,0,VALID,88.7866,VALID,0.105969,VALID,24.1014,VALID,53,VALID,0,
2009-05-22, 00:17:05,VALID,1009.95,VALID,0,VALID,88.8172,VALID,0,VALID,24.1014,VALID,19,VALID,0,
2009-05-22, 00:18:05,VALID,1009.94,VALID,0,VALID,88.8248,VALID,0,VALID,24.1032,VALID,19,VALID,0,
2009-05-22, 00:19:05,VALID,1009.91,VALID,0,VALID,88.84,VALID,0,VALID,24.0819,VALID,19,VALID,0,
2009-05-22, 00:20:05,VALID,1009.9,VALID,0,VALID,88.8477,VALID,0,VALID,24.0624,VALID,19,VALID,0,
2009-05-22, 00:21:05,VALID,1009.88,VALID,0,VALID,88.8629,VALID,0,VALID,24.0643,VALID,19,VALID,0,
2009-05-22, 00:22:05,VALID,1009.87,VALID,0,VALID,88.84,VALID,0,VALID,24.0429,VALID,91,VALID,0,
2009-05-22, 00:23:05,VALID,1009.86,VALID,0,VALID,88.8705,VALID,0,VALID,24.0235,VALID,94,VALID,0,
2009-05-22, 00:24:05,VALID,1009.84,VALID,0,VALID,88.901,VALID,0,VALID,24.0235,VALID,94,VALID,0,
2009-05-22, 00:25:05,VALID,1009.83,VALID,0,VALID,88.9163,VALID,0,VALID,24.0429,VALID,114,VALID,0.666797,
2009-05-22, 00:26:05,VALID,1009.82,VALID,0,VALID,88.9315,VALID,0,VALID,24.0429,VALID,102,VALID,0.789063,
2009-05-22, 00:27:05,VALID,1009.8,VALID,0,VALID,88.9315,VALID,0,VALID,24.0235,VALID,96,VALID,0.730859,
2009-05-22, 00:28:05,VALID,1009.8,VALID,0,VALID,88.9392,VALID,0.105969,VALID,24.0235,VALID,96,VALID,0.709375,
2009-05-22, 00:29:05,VALID,1009.79,VALID,0,VALID,88.9163,VALID,0,VALID,24.004,VALID,95,VALID,0.414063,
2009-05-22, 00:30:05,VALID,1009.77,VALID,0,VALID,88.9163,VALID,0,VALID,24.0235,VALID,89,VALID,0.221875,
2009-05-22, 00:31:05,VALID,1009.8,VALID,0,VALID,88.9163,VALID,0,VALID,24.004,VALID,89,VALID,0.278516,
2009-05-22, 00:32:05,VALID,1009.78,VALID,0,VALID,88.9239,VALID,0,VALID,23.9845,VALID,77,VALID,0.612109,
2009-05-22, 00:33:05,VALID,1009.74,VALID,0,VALID,88.9163,VALID,0.105969,VALID,24.004,VALID,92,VALID,0.439063,
2009-05-22, 00:34:05,VALID,1009.74,VALID,0,VALID,88.9239,VALID,0.105969,VALID,24.004,VALID,100,VALID,0.892578,
2009-05-22, 00:35:05,VALID,1009.74,VALID,0,VALID,88.901,VALID,0.105969,VALID,24.004,VALID,90,VALID,0.929297,
2009-05-22, 00:36:05,VALID,1009.73,VALID,0,VALID,88.8858,VALID,0.105969,VALID,24.004,VALID,105,VALID,0.895703,
2009-05-22, 00:37:05,VALID,1009.7,VALID,0,VALID,88.8705,VALID,0.105969,VALID,24.004,VALID,110,VALID,0.415234,
2009-05-22, 00:38:05,VALID,1009.69,VALID,0,VALID,88.84,VALID,0,VALID,24.004,VALID,84,VALID,1.44453,
2009-05-22, 00:39:05,VALID,1009.68,VALID,0,VALID,88.8172,VALID,0,VALID,24.004,VALID,99,VALID,0.766016,
2009-05-22, 00:40:05,VALID,1009.63,VALID,0,VALID,88.779,VALID,0.105969,VALID,24.0235,VALID,103,VALID,0.767578,
2009-05-22, 00:41:05,VALID,1009.63,VALID,0,VALID,88.7333,VALID,0,VALID,24.0235,VALID,126,VALID,0.7,
2009-05-22, 00:42:05,VALID,1009.6,VALID,0,VALID,88.6799,VALID,0,VALID,23.9845,VALID,120,VALID,0.983594,
2009-05-22, 00:43:05,VALID,1009.59,VALID,0,VALID,88.6723,VALID,0,VALID,23.965,VALID,123,VALID,1.09102,
2009-05-22, 00:44:05,VALID,1009.61,VALID,0,VALID,88.657,VALID,0,VALID,23.9845,VALID,117,VALID,0.810156,
2009-05-22, 00:45:05,VALID,1009.57,VALID,0,VALID,88.6646,VALID,0.105969,VALID,23.9455,VALID,117,VALID,1.09258,
2009-05-22, 00:46:05,VALID,1009.53,VALID,0,VALID,88.6723,VALID,0,VALID,23.965,VALID,120,VALID,1.16953,
2009-05-22, 00:47:05,VALID,1009.54,VALID,0,VALID,88.6646,VALID,0,VALID,23.926,VALID,129,VALID,0.495313,
2009-05-22, 00:48:05,VALID,1009.52,VALID,0,VALID,88.6951,VALID,0,VALID,23.9065,VALID,105,VALID,1.10078,
2009-05-22, 00:49:05,VALID,1009.5,VALID,0,VALID,88.718,VALID,0,VALID,23.9065,VALID,105,VALID,1.01563,
2009-05-22, 00:50:05,VALID,1009.53,VALID,0,VALID,88.7714,VALID,0,VALID,23.9065,VALID,116,VALID,1.20781,
2009-05-22, 00:51:05,VALID,1009.52,VALID,0,VALID,88.8095,VALID,0.105969,VALID,23.9065,VALID,115,VALID,0.931641,
2009-05-22, 00:52:05,VALID,1009.52,VALID,0,VALID,88.84,VALID,0.105969,VALID,23.8871,VALID,97,VALID,0.90625,
2009-05-22, 00:53:05,VALID,1009.5,VALID,0,VALID,88.8477,VALID,0.105969,VALID,23.8871,VALID,112,VALID,0.657422,
2009-05-22, 00:54:05,VALID,1009.47,VALID,0,VALID,88.8934,VALID,0.105969,VALID,23.8871,VALID,100,VALID,0.567969,
2009-05-22, 00:55:05,VALID,1009.46,VALID,0,VALID,88.9087,VALID,0,VALID,23.8889,VALID,98,VALID,0.941016,
2009-05-22, 00:56:05,VALID,1009.44,VALID,0,VALID,88.9315,VALID,0,VALID,23.8676,VALID,102,VALID,0.707422,
2009-05-22, 00:57:05,VALID,1009.4,VALID,0,VALID,88.9315,VALID,0,VALID,23.8676,VALID,101,VALID,0.726563,
2009-05-22, 00:58:05,VALID,1009.38,VALID,0,VALID,88.9239,VALID,0.105969,VALID,23.8676,VALID,97,VALID,0.273828,
2009-05-22, 00:59:05,VALID,1009.38,VALID,0,VALID,88.9392,VALID,0.105969,VALID,23.8481,VALID,77,VALID,0.4375,
2009-05-22, 01:00:05,VALID,1009.37,VALID,0,VALID,88.962,VALID,0.105969,VALID,23.8676,VALID,58,VALID,0.539844,
2009-05-22, 01:01:05,VALID,1009.33,VALID,0,VALID,88.9392,VALID,0,VALID,23.8676,VALID,58,VALID,0.349219,
2009-05-22, 01:02:05,VALID,1009.32,VALID,0,VALID,88.962,VALID,0,VALID,23.8481,VALID,54,VALID,0.411719,
2009-05-22, 01:03:05,VALID,1009.31,VALID,0,VALID,88.9544,VALID,0.105969,VALID,23.8286,VALID,57,VALID,0.225391,
2009-05-22, 01:04:05,VALID,1009.26,VALID,0,VALID,88.9544,VALID,0.105969,VALID,23.8286,VALID,36,VALID,0.555469,
2009-05-22, 01:05:05,VALID,1009.25,VALID,0,VALID,88.9697,VALID,0.105969,VALID,23.8091,VALID,87,VALID,0.607422,
2009-05-22, 01:06:05,VALID,1009.24,VALID,0,VALID,88.9773,VALID,0,VALID,23.8091,VALID,69,VALID,0.739844,
2009-05-22, 01:07:05,VALID,1009.23,VALID,0,VALID,88.9849,VALID,0,VALID,23.7896,VALID,78,VALID,0.689062,
2009-05-22, 01:08:05,VALID,1009.2,VALID,0,VALID,89.0002,VALID,0,VALID,23.7896,VALID,87,VALID,0.600781,
2009-05-22, 01:09:05,VALID,1009.17,VALID,0,VALID,89.023,VALID,0,VALID,23.7896,VALID,92,VALID,0.635547,
2009-05-22, 01:10:05,VALID,1009.15,VALID,0,VALID,89.023,VALID,0.105969,VALID,23.7914,VALID,107,VALID,0.851563,
2009-05-22, 01:11:05,VALID,1009.13,VALID,0,VALID,89.0307,VALID,0.105969,VALID,23.7701,VALID,105,VALID,0.649609,
2009-05-22, 01:12:05,VALID,1009.12,VALID,0,VALID,89.0459,VALID,0,VALID,23.7701,VALID,105,VALID,0.453906,
2009-05-22, 01:13:05,VALID,1009.11,VALID,0,VALID,89.0383,VALID,0,VALID,23.7507,VALID,87,VALID,0.422656,
2009-05-22, 01:14:05,VALID,1009.11,VALID,0,VALID,89.0612,VALID,0,VALID,23.7507,VALID,87,VALID,0,
2009-05-22, 01:15:05,VALID,1009.08,VALID,0,VALID,89.0383,VALID,0,VALID,23.7701,VALID,87,VALID,0,
2009-05-22, 01:16:05,VALID,1009.08,VALID,0,VALID,89.0612,VALID,0,VALID,23.7507,VALID,68,VALID,0,
2009-05-22, 01:17:05,VALID,1009.08,VALID,0,VALID,89.0612,VALID,0,VALID,23.7507,VALID,66,VALID,0,
2009-05-22, 01:18:05,VALID,1009.07,VALID,0,VALID,89.0688,VALID,0.105969,VALID,23.7312,VALID,66,VALID,0,
2009-05-22, 01:19:05,VALID,1009.04,VALID,0,VALID,89.0917,VALID,0,VALID,23.7312,VALID,66,VALID,0,
2009-05-22, 01:20:05,VALID,1009.03,VALID,0,VALID,89.0917,VALID,0,VALID,23.7312,VALID,67,VALID,0,
2009-05-22, 01:21:05,VALID,1009.02,VALID,0,VALID,89.0841,VALID,0.105969,VALID,23.7312,VALID,75,VALID,0,
2009-05-22, 01:22:05,VALID,1009.03,VALID,0,VALID,89.0917,VALID,0,VALID,23.7117,VALID,96,VALID,0,
2009-05-22, 01:23:05,VALID,1009.02,VALID,0,VALID,89.0841,VALID,0,VALID,23.7312,VALID,101,VALID,0,
2009-05-22, 01:24:05,VALID,1009.04,VALID,0,VALID,89.0688,VALID,0,VALID,23.7117,VALID,133,VALID,0,
2009-05-22, 01:25:05,VALID,1009.02,VALID,0,VALID,89.0154,VALID,0,VALID,23.7117,VALID,127,VALID,1.20039,
2009-05-22, 01:26:05,VALID,1009.03,VALID,0,VALID,89.0154,VALID,0.105969,VALID,23.7117,VALID,143,VALID,1.03984,
2009-05-22, 01:27:05,VALID,1009.03,VALID,0,VALID,88.9849,VALID,0,VALID,23.7312,VALID,128,VALID,1.22891,
2009-05-22, 01:28:05,VALID,1009.03,VALID,0,VALID,88.962,VALID,0.105969,VALID,23.7312,VALID,134,VALID,0.938281,
2009-05-22, 01:29:05,VALID,1009.03,VALID,0,VALID,88.9544,VALID,0.105969,VALID,23.7117,VALID,125,VALID,0.775781,
2009-05-22, 01:30:05,VALID,1009.05,VALID,0,VALID,88.9239,VALID,0.105969,VALID,23.7117,VALID,138,VALID,0.964453,
2009-05-22, 01:31:05,VALID,1009.02,VALID,0,VALID,88.9163,VALID,0.105969,VALID,23.7117,VALID,130,VALID,0.692187,
2009-05-22, 01:32:05,VALID,1009.05,VALID,0,VALID,88.9163,VALID,0,VALID,23.6922,VALID,133,VALID,0.416016,
2009-05-22, 01:33:05,VALID,1009.05,VALID,0,VALID,88.9163,VALID,0.105969,VALID,23.6727,VALID,134,VALID,0.726563,
2009-05-22, 01:34:05,VALID,1009.04,VALID,0,VALID,88.9087,VALID,0,VALID,23.6727,VALID,136,VALID,0.564844,
2009-05-22, 01:35:05,VALID,1009.03,VALID,0,VALID,88.9163,VALID,0.105969,VALID,23.6922,VALID,135,VALID,0.283594,
2009-05-22, 01:36:05,VALID,1009.05,VALID,0,VALID,88.9087,VALID,0.105969,VALID,23.6727,VALID,130,VALID,0.328125,
2009-05-22, 01:37:05,VALID,1009.02,VALID,0,VALID,88.8705,VALID,0.105969,VALID,23.6922,VALID,103,VALID,1.10234,
2009-05-22, 01:38:05,VALID,1009.05,VALID,0,VALID,88.8172,VALID,0.105969,VALID,23.7135,VALID,92,VALID,0.957422,
2009-05-22, 01:39:05,VALID,1009.03,VALID,0,VALID,88.7409,VALID,0.105969,VALID,23.7312,VALID,92,VALID,0.689453,
2009-05-22, 01:40:05,VALID,1009.01,VALID,0,VALID,88.6875,VALID,0.105969,VALID,23.7312,VALID,123,VALID,0.448047,
2009-05-22, 01:41:05,VALID,1009.01,VALID,0,VALID,88.6189,VALID,0,VALID,23.7312,VALID,85,VALID,0.432813,
2009-05-22, 01:42:05,VALID,1009.03,VALID,0,VALID,88.5807,VALID,0,VALID,23.7312,VALID,70,VALID,0.396484,
2009-05-22, 01:43:05,VALID,1009.03,VALID,0,VALID,88.5426,VALID,0,VALID,23.7312,VALID,69,VALID,0.172266,
2009-05-22, 01:44:05,VALID,1009.03,VALID,0,VALID,88.5274,VALID,0,VALID,23.772,VALID,50,VALID,0,
2009-05-22, 01:45:05,VALID,1009.04,VALID,0,VALID,88.4664,VALID,0,VALID,23.7312,VALID,61,VALID,0,
2009-05-22, 01:46:05,VALID,1009.04,VALID,0,VALID,88.4282,VALID,0,VALID,23.7312,VALID,71,VALID,0,
2009-05-22, 01:47:05,VALID,1009.05,VALID,0,VALID,88.4206,VALID,0.105969,VALID,23.7117,VALID,71,VALID,0,
2009-05-22, 01:48:05,VALID,1009.01,VALID,0,VALID,88.4054,VALID,0.105969,VALID,23.7312,VALID,71,VALID,0,
2009-05-22, 01:49:05,VALID,1009.01,VALID,0,VALID,88.3977,VALID,0.105969,VALID,23.7117,VALID,71,VALID,0,
2009-05-22, 01:50:05,VALID,1009,VALID,0,VALID,88.3901,VALID,0.105969,VALID,23.7117,VALID,71,VALID,0,
2009-05-22, 01:51:05,VALID,1008.97,VALID,0,VALID,88.413,VALID,0,VALID,23.6922,VALID,71,VALID,0,
2009-05-22, 01:52:05,VALID,1008.95,VALID,0,VALID,88.413,VALID,0.105969,VALID,23.6922,VALID,71,VALID,0,
2009-05-22, 01:53:05,VALID,1008.95,VALID,0,VALID,88.4054,VALID,0.105969,VALID,23.6727,VALID,71,VALID,0,
2009-05-22, 01:54:05,VALID,1008.93,VALID,0,VALID,88.4206,VALID,0,VALID,23.6727,VALID,71,VALID,0,
2009-05-22, 01:55:05,VALID,1008.95,VALID,0,VALID,88.4435,VALID,0,VALID,23.6727,VALID,71,VALID,0,
2009-05-22, 01:56:05,VALID,1008.92,VALID,0,VALID,88.474,VALID,0.105969,VALID,23.6727,VALID,71,VALID,0,
2009-05-22, 01:57:05,VALID,1008.89,VALID,0,VALID,88.4892,VALID,0,VALID,23.6727,VALID,71,VALID,0,
2009-05-22, 01:58:05,VALID,1008.93,VALID,0,VALID,88.5121,VALID,0,VALID,23.6727,VALID,71,VALID,0,
2009-05-22, 01:59:05,VALID,1008.91,VALID,0,VALID,88.5197,VALID,0,VALID,23.694,VALID,71,VALID,0,
2009-05-22, 02:00:05,VALID,1008.89,VALID,0,VALID,88.5426,VALID,0,VALID,23.6532,VALID,71,VALID,0,
2009-05-22, 02:01:05,VALID,1008.89,VALID,0,VALID,88.5274,VALID,0,VALID,23.6532,VALID,71,VALID,0,
2009-05-22, 02:02:05,VALID,1008.9,VALID,0,VALID,88.5274,VALID,0,VALID,23.6532,VALID,71,VALID,0,
2009-05-22, 02:03:05,VALID,1008.87,VALID,0,VALID,88.5121,VALID,0,VALID,23.6727,VALID,79,VALID,0,
2009-05-22, 02:04:05,VALID,1008.85,VALID,0,VALID,88.5045,VALID,0.105969,VALID,23.6532,VALID,79,VALID,0,
2009-05-22, 02:05:05,VALID,1008.83,VALID,0,VALID,88.5197,VALID,0,VALID,23.6338,VALID,79,VALID,0,
2009-05-22, 02:06:05,VALID,1008.83,VALID,0,VALID,88.5197,VALID,0,VALID,23.6532,VALID,79,VALID,0,
2009-05-22, 02:07:05,VALID,1008.84,VALID,0,VALID,88.5655,VALID,0,VALID,23.6532,VALID,79,VALID,0,
2009-05-22, 02:08:05,VALID,1008.82,VALID,0,VALID,88.5807,VALID,0,VALID,23.6532,VALID,79,VALID,0,
2009-05-22, 02:09:05,VALID,1008.84,VALID,0,VALID,88.6113,VALID,0.105969,VALID,23.6338,VALID,79,VALID,0,
2009-05-22, 02:10:05,VALID,1008.84,VALID,0,VALID,88.6494,VALID,0.105969,VALID,23.6338,VALID,79,VALID,0,
2009-05-22, 02:11:05,VALID,1008.81,VALID,0,VALID,88.6875,VALID,0.105969,VALID,23.6143,VALID,79,VALID,0,
2009-05-22, 02:12:05,VALID,1008.84,VALID,0,VALID,88.7485,VALID,0.105969,VALID,23.5948,VALID,79,VALID,0,
2009-05-22, 02:13:05,VALID,1008.83,VALID,0,VALID,88.779,VALID,0,VALID,23.5948,VALID,79,VALID,0,
2009-05-22, 02:14:05,VALID,1008.85,VALID,0,VALID,88.8172,VALID,0,VALID,23.5753,VALID,79,VALID,0,
2009-05-22, 02:15:05,VALID,1008.84,VALID,0,VALID,88.8324,VALID,0.105969,VALID,23.5966,VALID,79,VALID,0,
2009-05-22, 02:16:05,VALID,1008.81,VALID,0,VALID,88.8553,VALID,0.105969,VALID,23.5558,VALID,79,VALID,0,
2009-05-22, 02:17:05,VALID,1008.79,VALID,0,VALID,88.8782,VALID,0.105969,VALID,23.5363,VALID,79,VALID,0,
2009-05-22, 02:18:05,VALID,1008.78,VALID,0,VALID,88.9087,VALID,0.105969,VALID,23.5558,VALID,79,VALID,0,
2009-05-22, 02:19:05,VALID,1008.82,VALID,0,VALID,88.9544,VALID,0,VALID,23.5151,VALID,79,VALID,0,
2009-05-22, 02:20:05,VALID,1008.8,VALID,0,VALID,88.9773,VALID,0.105969,VALID,23.5363,VALID,79,VALID,0,
2009-05-22, 02:21:05,VALID,1008.8,VALID,0,VALID,89.0154,VALID,0,VALID,23.5363,VALID,79,VALID,0,
2009-05-22, 02:22:05,VALID,1008.77,VALID,0,VALID,89.023,VALID,0.105969,VALID,23.5363,VALID,79,VALID,0,
2009-05-22, 02:23:05,VALID,1008.77,VALID,0,VALID,89.0764,VALID,0,VALID,23.5363,VALID,79,VALID,0,
2009-05-22, 02:24:05,VALID,1008.76,VALID,0,VALID,89.0917,VALID,0.105969,VALID,23.5169,VALID,79,VALID,0,
2009-05-22, 02:25:05,VALID,1008.8,VALID,0,VALID,89.0993,VALID,0.105969,VALID,23.5169,VALID,79,VALID,0,
2009-05-22, 02:26:05,VALID,1008.8,VALID,0,VALID,89.1222,VALID,0.105969,VALID,23.5169,VALID,79,VALID,0,
2009-05-22, 02:27:05,VALID,1008.79,VALID,0,VALID,89.1527,VALID,0,VALID,23.4974,VALID,76,VALID,0,
2009-05-22, 02:28:05,VALID,1008.84,VALID,0,VALID,89.1756,VALID,0.105969,VALID,23.4974,VALID,71,VALID,0,
2009-05-22, 02:29:05,VALID,1008.83,VALID,0,VALID,89.2289,VALID,0,VALID,23.4992,VALID,36,VALID,0,
2009-05-22, 02:30:05,VALID,1008.85,VALID,0,VALID,89.2518,VALID,0,VALID,23.4779,VALID,35,VALID,0,
2009-05-22, 02:31:05,VALID,1008.86,VALID,0,VALID,89.2747,VALID,0,VALID,23.4779,VALID,33,VALID,0,
2009-05-22, 02:32:05,VALID,1008.87,VALID,0,VALID,89.2747,VALID,0,VALID,23.4602,VALID,33,VALID,0,
2009-05-22, 02:33:05,VALID,1008.87,VALID,0,VALID,89.3128,VALID,0,VALID,23.4389,VALID,36,VALID,0,
2009-05-22, 02:34:05,VALID,1008.86,VALID,0,VALID,89.3281,VALID,0,VALID,23.4389,VALID,44,VALID,0,
2009-05-22, 02:35:05,VALID,1008.86,VALID,0,VALID,89.3433,VALID,0,VALID,23.4194,VALID,48,VALID,0,
2009-05-22, 02:36:05,VALID,1008.88,VALID,0,VALID,89.3433,VALID,0.105969,VALID,23.4389,VALID,51,VALID,0,
2009-05-22, 02:37:05,VALID,1008.87,VALID,0,VALID,89.3586,VALID,0.105969,VALID,23.4389,VALID,46,VALID,0,
2009-05-22, 02:38:05,VALID,1008.86,VALID,0,VALID,89.3815,VALID,0,VALID,23.4194,VALID,46,VALID,0,
2009-05-22, 02:39:05,VALID,1008.88,VALID,0,VALID,89.3815,VALID,0.105969,VALID,23.4194,VALID,36,VALID,0,
2009-05-22, 02:40:05,VALID,1008.82,VALID,0,VALID,89.3815,VALID,0,VALID,23.4,VALID,35,VALID,0,
2009-05-22, 02:41:05,VALID,1008.83,VALID,0,VALID,89.3891,VALID,0.105969,VALID,23.4,VALID,41,VALID,0,
2009-05-22, 02:42:05,VALID,1008.85,VALID,0,VALID,89.3967,VALID,0.105969,VALID,23.4,VALID,41,VALID,0,
2009-05-22, 02:43:05,VALID,1008.81,VALID,0,VALID,89.4196,VALID,0,VALID,23.3805,VALID,57,VALID,0,
2009-05-22, 02:44:05,VALID,1008.81,VALID,0,VALID,89.412,VALID,0.105969,VALID,23.3805,VALID,66,VALID,0.16875,
2009-05-22, 02:45:04,VALID,1008.82,VALID,0,VALID,89.4196,VALID,0,VALID,23.4017,VALID,55,VALID,0.760156,
2009-05-22, 02:46:04,VALID,1008.81,VALID,0,VALID,89.4425,VALID,0.105969,VALID,23.3805,VALID,48,VALID,0.309766,
2009-05-22, 02:47:04,VALID,1008.81,VALID,0,VALID,89.4425,VALID,0.105969,VALID,23.4017,VALID,48,VALID,0.243359,
2009-05-22, 02:48:04,VALID,1008.78,VALID,0,VALID,89.4425,VALID,0.105969,VALID,23.4,VALID,48,VALID,0.297266,
2009-05-22, 02:49:04,VALID,1008.77,VALID,0,VALID,89.4272,VALID,0.105969,VALID,23.3805,VALID,48,VALID,0,
2009-05-22, 02:50:04,VALID,1008.78,VALID,0,VALID,89.4425,VALID,0.105969,VALID,23.3805,VALID,48,VALID,0,
2009-05-22, 02:51:04,VALID,1008.79,VALID,0,VALID,89.4425,VALID,0.105969,VALID,23.3805,VALID,48,VALID,0.113281,
2009-05-22, 02:52:04,VALID,1008.75,VALID,0,VALID,89.4425,VALID,0.105969,VALID,23.3805,VALID,48,VALID,0.407031,
2009-05-22, 02:53:04,VALID,1008.74,VALID,0,VALID,89.4501,VALID,0,VALID,23.4017,VALID,48,VALID,0.139453,
2009-05-22, 02:54:04,VALID,1008.73,VALID,0,VALID,89.4425,VALID,0.105969,VALID,23.3805,VALID,48,VALID,0.138672,
2009-05-22, 02:55:04,VALID,1008.68,VALID,0,VALID,89.4348,VALID,0.105969,VALID,23.3805,VALID,48,VALID,0.0421875,
2009-05-22, 02:56:04,VALID,1008.68,VALID,0,VALID,89.4196,VALID,0.105969,VALID,23.3805,VALID,46,VALID,0.0976563,
2009-05-22, 02:57:04,VALID,1008.65,VALID,0,VALID,89.4425,VALID,0.105969,VALID,23.3805,VALID,45,VALID,0,
2009-05-22, 02:58:04,VALID,1008.63,VALID,0,VALID,89.4272,VALID,0.105969,VALID,23.3805,VALID,45,VALID,0,
2009-05-22, 02:59:04,VALID,1008.62,VALID,0,VALID,89.412,VALID,0.105969,VALID,23.3805,VALID,45,VALID,0,
2009-05-22, 03:00:04,VALID,1008.59,VALID,0,VALID,89.412,VALID,0,VALID,23.3823,VALID,45,VALID,0,
2009-05-22, 03:01:04,VALID,1008.6,VALID,0,VALID,89.412,VALID,0,VALID,23.3823,VALID,45,VALID,0,
2009-05-22, 03:02:04,VALID,1008.55,VALID,0,VALID,89.3967,VALID,0,VALID,23.3433,VALID,45,VALID,0,
2009-05-22, 03:03:04,VALID,1008.59,VALID,0,VALID,89.3967,VALID,0,VALID,23.3628,VALID,45,VALID,0,
2009-05-22, 03:04:04,VALID,1008.58,VALID,0,VALID,89.4196,VALID,0,VALID,23.3823,VALID,45,VALID,0,
2009-05-22, 03:05:04,VALID,1008.59,VALID,0,VALID,89.412,VALID,0,VALID,23.3823,VALID,45,VALID,0,
2009-05-22, 03:06:04,VALID,1008.6,VALID,0,VALID,89.412,VALID,0,VALID,23.3628,VALID,45,VALID,0,
2009-05-22, 03:07:04,VALID,1008.59,VALID,0,VALID,89.4272,VALID,0,VALID,23.3628,VALID,45,VALID,0,
2009-05-22, 03:08:04,VALID,1008.57,VALID,0,VALID,89.412,VALID,0,VALID,23.3628,VALID,45,VALID,0,
2009-05-22, 03:09:04,VALID,1008.58,VALID,0,VALID,89.412,VALID,0,VALID,23.3433,VALID,45,VALID,0,
2009-05-22, 03:10:04,VALID,1008.55,VALID,0,VALID,89.4196,VALID,0,VALID,23.3628,VALID,45,VALID,0,
2009-05-22, 03:11:04,VALID,1008.58,VALID,0,VALID,89.4196,VALID,0,VALID,23.3433,VALID,45,VALID,0,
2009-05-22, 03:12:04,VALID,1008.56,VALID,0,VALID,89.3815,VALID,0,VALID,23.3238,VALID,45,VALID,0,
2009-05-22, 03:13:04,VALID,1008.57,VALID,0,VALID,89.3815,VALID,0,VALID,23.3043,VALID,45,VALID,0,
2009-05-22, 03:14:04,VALID,1008.57,VALID,0,VALID,89.3891,VALID,0,VALID,23.2848,VALID,45,VALID,0,
2009-05-22, 03:15:04,VALID,1008.56,VALID,0,VALID,89.3815,VALID,0,VALID,23.2848,VALID,45,VALID,0,
2009-05-22, 03:16:04,VALID,1008.58,VALID,0,VALID,89.3967,VALID,0,VALID,23.2441,VALID,45,VALID,0,
2009-05-22, 03:17:04,VALID,1008.6,VALID,0,VALID,89.4196,VALID,0,VALID,23.2848,VALID,45,VALID,0,
2009-05-22, 03:18:04,VALID,1008.56,VALID,0,VALID,89.4272,VALID,0,VALID,23.2654,VALID,45,VALID,0,
2009-05-22, 03:19:04,VALID,1008.54,VALID,0,VALID,89.4425,VALID,0.105969,VALID,23.2459,VALID,45,VALID,0,
2009-05-22, 03:20:04,VALID,1008.53,VALID,0,VALID,89.473,VALID,0,VALID,23.2264,VALID,45,VALID,0,
2009-05-22, 03:21:04,VALID,1008.56,VALID,0,VALID,89.4806,VALID,0,VALID,23.2051,VALID,45,VALID,0,
2009-05-22, 03:22:04,VALID,1008.54,VALID,0,VALID,89.5035,VALID,0,VALID,23.2069,VALID,45,VALID,0,
2009-05-22, 03:23:04,VALID,1008.57,VALID,0,VALID,89.5416,VALID,0,VALID,23.1857,VALID,45,VALID,0,
2009-05-22, 03:24:04,VALID,1008.56,VALID,0,VALID,89.5645,VALID,0,VALID,23.1874,VALID,45,VALID,0,
2009-05-22, 03:25:04,VALID,1008.55,VALID,0,VALID,89.5873,VALID,0,VALID,23.1874,VALID,45,VALID,0,
2009-05-22, 03:26:04,VALID,1008.55,VALID,0,VALID,89.6331,VALID,0,VALID,23.2069,VALID,45,VALID,0,
2009-05-22, 03:27:04,VALID,1008.54,VALID,0,VALID,89.656,VALID,0.105969,VALID,23.2069,VALID,45,VALID,0,
2009-05-22, 03:28:04,VALID,1008.51,VALID,0,VALID,89.6712,VALID,0,VALID,23.1857,VALID,45,VALID,0,
2009-05-22, 03:29:04,VALID,1008.52,VALID,0,VALID,89.6789,VALID,0,VALID,23.2069,VALID,45,VALID,0,
2009-05-22, 03:30:04,VALID,1008.49,VALID,0,VALID,89.7094,VALID,0.105969,VALID,23.2051,VALID,45,VALID,0,
2009-05-22, 03:31:04,VALID,1008.52,VALID,0,VALID,89.6941,VALID,0,VALID,23.2264,VALID,45,VALID,0,
2009-05-22, 03:32:04,VALID,1008.48,VALID,0,VALID,89.6865,VALID,0,VALID,23.1662,VALID,45,VALID,0,
2009-05-22, 03:33:04,VALID,1008.48,VALID,0,VALID,89.6636,VALID,0,VALID,23.1679,VALID,45,VALID,0,
2009-05-22, 03:34:04,VALID,1008.45,VALID,0,VALID,89.6484,VALID,0,VALID,23.129,VALID,45,VALID,0,
2009-05-22, 03:35:04,VALID,1008.43,VALID,0,VALID,89.6484,VALID,0,VALID,23.1095,VALID,45,VALID,0,
2009-05-22, 03:36:04,VALID,1008.46,VALID,0,VALID,89.6407,VALID,0,VALID,23.1095,VALID,45,VALID,0,
2009-05-22, 03:37:04,VALID,1008.47,VALID,0,VALID,89.6331,VALID,0,VALID,23.09,VALID,45,VALID,0,
2009-05-22, 03:38:04,VALID,1008.46,VALID,0,VALID,89.6255,VALID,0,VALID,23.0511,VALID,45,VALID,0,
2009-05-22, 03:39:04,VALID,1008.49,VALID,0,VALID,89.5645,VALID,0,VALID,22.9926,VALID,45,VALID,0,
2009-05-22, 03:40:04,VALID,1008.46,VALID,0,VALID,89.5568,VALID,0,VALID,22.9926,VALID,45,VALID,0,
2009-05-22, 03:41:04,VALID,1008.47,VALID,0,VALID,89.5568,VALID,0,VALID,22.9731,VALID,45,VALID,0,
2009-05-22, 03:42:04,VALID,1008.45,VALID,0,VALID,89.5416,VALID,0,VALID,22.9519,VALID,45,VALID,0,
2009-05-22, 03:43:04,VALID,1008.43,VALID,0,VALID,89.5568,VALID,0,VALID,22.9536,VALID,45,VALID,0,
2009-05-22, 03:44:04,VALID,1008.43,VALID,0,VALID,89.5645,VALID,0,VALID,22.9536,VALID,45,VALID,0,
2009-05-22, 03:45:04,VALID,1008.44,VALID,0,VALID,89.5721,VALID,0,VALID,22.9536,VALID,45,VALID,0,
2009-05-22, 03:46:04,VALID,1008.43,VALID,0,VALID,89.595,VALID,0,VALID,22.9342,VALID,45,VALID,0,
2009-05-22, 03:47:04,VALID,1008.42,VALID,0,VALID,89.6179,VALID,0,VALID,22.9342,VALID,45,VALID,0,
2009-05-22, 03:48:04,VALID,1008.46,VALID,0,VALID,89.6484,VALID,0,VALID,22.9731,VALID,45,VALID,0,
2009-05-22, 03:49:04,VALID,1008.43,VALID,0,VALID,89.7094,VALID,0,VALID,23.0528,VALID,45,VALID,0,
2009-05-22, 03:50:04,VALID,1008.46,VALID,0,VALID,89.7627,VALID,0,VALID,23.0705,VALID,45,VALID,0,